Regional Weather Roundup
Issued by NWS

Home | Current Version | Previous Version | Text Only | Print | Product List | Glossary Off
Versions: 1 2 3 4 5 6 7 8 9 10 11 12 13 14 15 16 17 18 19 20 21 22 23 24 25 26 27 28 29 30 31 32 33 34 35 36 37 38 39 40 41 42 43 44 45 46 47 48 49 50

000
ASUS43 KLMK 301610
RWRKY
KENTUCKY REGIONAL WEATHER ROUNDUP
NATIONAL WEATHER SERVICE LOUISVILLE KY
1200 PM EDT SAT MAY 30 2015

NOTE "FAIR" INDICATES FEW OR NO CLOUDS BELOW 12,000 FEET
WITH NO SIGNIFICANT WEATHER AND/OR OBSTRUCTIONS TO VISIBILITY.

KYZ001>023-026-027-061>063-070>075-301700-
WESTERN AND SOUTH CENTRAL KENTUCKY

CITY           SKY/WX    TMP DP  RH WIND       PRES   REMARKS
PADUCAH        PTSUNNY   79  67  66 S13G21    29.98F
HENDERSON      PTSUNNY   81  66  61 S13       29.99S
OWENSBORO      MOSUNNY   82  70  67 S16G24    30.02S
HOPKINSVILLE   SUNNY     80  68  68 S12       30.05R
BOWLING GREEN  PTSUNNY   83  68  60 S14G21    30.07F
GLASGOW        PTSUNNY   82  64  54 S17G23    30.09F
$$

KYZ024-025-028>034-038-045-046-053-301700-
NORTH CENTRAL KENTUCKY

CITY           SKY/WX    TMP DP  RH WIND       PRES   REMARKS
LOUISVILLE/SDF MOSUNNY   84  66  54 S18       30.05S
LOUISVILLE/LOU MOSUNNY   81  66  60 S10G17    30.06S
FORT KNOX      MOSUNNY   82  68  62 S9        30.05F
$$

KYZ035>037-039>044-047>052-055>060-089>105-301700-
NORTHEAST KENTUCKY

CITY           SKY/WX    TMP DP  RH WIND       PRES   REMARKS
LEXINGTON      SUNNY     80  67  64 S14       30.11F
COVINGTON      MOSUNNY   81  68  64 SW9       30.07F
FRANKFORT      PTSUNNY   83  65  54 S14       30.08F
$$

KYZ054-064>069-076>088-106>120-301700-
SOUTHEAST KENTUCKY

CITY           SKY/WX    TMP DP  RH WIND       PRES   REMARKS
JACKSON        MOSUNNY   79  63  57 VRB3      30.17S
LONDON         CLOUDY    78  60  53 S8        30.16S
SOMERSET       MOSUNNY   77  63  61 S7        30.15S
MIDDLESBORO    MOSUNNY   80  62  54 S7        30.18S
MONTICELLO     MOSUNNY   82  66  58 S10       30.16S
$$




USA.gov is the U.S. government's official web portal to all federal, state and local government web resources and services.